[[{"header":{"parameterUnit":"m.s-1","parameterCategory":1,"la1":30.2991,"la2":30.254,"lo1":-89.0895,"lo2":-89.0444,"dy":0.0017,"dx":0.0017,"nx":28,"ny":28,"refTime":"2023-03-21T21:00:00:Z","depth":0,"parameterNumber":2,"parameterNumberName":"U-component_of_WINDS"},"data":[0,0,0,0,0,0,0,0,0,0,0,0,0,0,0,0,0,0,0,0,0,0,0,0,0,0,0,0,0,0,0,0,0,0,0,0,0,0,0,0,0,0,0,0,0,0,0,0,0,0,0,0,0,0,0,0,0,0,-2.1166,-2.1168,0,-2.1281,-2.1282,-2.1283,-2.1303,-2.1302,-2.1301,-2.13,-2.142,-2.1424,-2.1428,0,0,0,0,0,0,0,0,0,0,0,0,0,-2.0967,-2.0971,-2.1166,-2.1168,-2.1169,-2.1281,-2.1282,-2.1284,-2.1303,-2.1302,-2.1301,-2.13,-2.1418,-2.1423,-2.1428,0,0,0,0,0,0,0,0,0,0,0,0,0,-2.1065,-2.0972,-2.1166,-2.1192,-2.1196,-2.128,-2.1282,-2.1284,-2.1303,-2.1302,-2.13,-2.1299,-2.1417,-2.1423,-2.1429,-2.1496,0,0,-2.1447,-2.145,0,0,0,0,0,0,0,0,-2.1059,-2.1072,-2.1187,-2.1191,-2.1195,-2.1276,-2.1256,-2.1355,-2.1304,-2.1263,-2.13,-2.1298,-2.1373,-2.1383,-2.1408,-2.1502,-2.1507,-2.1448,-2.1452,-2.1454,-2.1456,0,0,0,0,0,0,0,-2.1053,-2.1068,-2.1212,-2.1189,-2.1193,-2.1199,-2.1211,-2.1275,-2.1325,-2.1266,-2.1268,-2.1281,-2.1375,-2.1402,-2.1411,-2.1509,-2.1448,-2.1453,-2.1457,-2.1459,-2.1664,-2.1666,0,0,0,0,0,0,-2.1041,-2.1062,-2.1208,-2.1215,-2.1122,-2.1204,-2.1218,-2.1251,-2.1324,-2.1334,-2.1282,-2.1281,-2.1392,-2.1403,-2.1415,-2.1499,-2.1454,-2.146,-2.1464,-2.1662,-2.1665,-2.1667,0,0,0,0,0,0,-2.1036,-2.1054,-2.1203,-2.1139,-2.1158,-2.1209,-2.1247,-2.1254,-2.1281,-2.1336,-2.1345,-2.13,-2.1391,-2.1406,-2.1476,-2.1503,-2.1463,-2.1468,-2.166,-2.1663,-2.1666,-2.1666,0,0,0,0,0,0,-2.1031,-2.1052,-2.1077,-2.1139,-2.1162,-2.1262,-2.1248,-2.1258,-2.1291,-2.1292,-2.1355,-2.1365,-2.1391,-2.1466,-2.1482,-2.1511,-2.1473,-2.1658,-2.1662,-2.1665,-2.1664,-2.1669,-2.1673,0,0,0,0,0,-2.1023,-2.1074,-2.1079,-2.1096,-2.1194,-2.1263,-2.1276,-2.1305,-2.1293,-2.132,-2.1355,-2.1362,-2.1498,-2.1473,-2.1491,-2.1522,-2.1657,-2.1661,-2.1664,-2.1662,-2.1668,-2.1673,0,0,0,0,0,0,-2.1015,-2.1082,-2.1088,-2.116,-2.1205,-2.1266,-2.13,-2.131,-2.136,-2.1359,-2.1393,-2.1407,-2.1475,-2.1506,-2.1477,-2.1591,-2.1576,-2.1584,-2.1569,-2.1574,-2.1579,-2.157,-2.1478,0,0,0,0,0,-2.1021,-2.107,-2.1127,-2.1184,-2.1207,-2.125,-2.1281,-2.1299,-2.1348,-2.1367,-2.1408,-2.1456,-2.1509,-2.1544,-2.1596,-2.1669,-2.1683,-2.1699,-2.1703,-2.1706,-2.1713,-2.1754,-2.1761,-2.1679,-2.1679,-2.1679,0,0,-2.1034,-2.1077,-2.1106,-2.1184,-2.1221,-2.1272,-2.1266,-2.132,-2.1358,-2.1376,-2.1444,-2.1475,-2.1531,-2.1603,-2.1636,-2.163,-2.1738,-2.1712,-2.1714,-2.1718,-2.1759,-2.1766,-2.1773,-2.1682,-2.1682,-2.1681,0,0,-2.1085,-2.1122,-2.1174,-2.1212,-2.1268,-2.1296,-2.1309,-2.1368,-2.139,-2.1458,-2.1473,-2.1519,-2.161,-2.165,-2.1681,-2.1747,-2.1756,-2.1763,-2.1785,-2.1825,-2.1831,-2.1837,-2.1861,-2.1869,-2.1769,-2.1769,-2.1769,0,-2.1095,-2.1171,-2.12,-2.1254,-2.1287,-2.1305,-2.1358,-2.1394,-2.1465,-2.1488,-2.148,-2.1595,-2.1634,-2.1715,-2.1731,-2.1756,-2.1772,-2.1756,-2.1828,-2.1834,-2.184,-2.1863,-2.1872,-2.177,-2.177,-2.177,-2.177,0,-2.1181,-2.1233,-2.1269,-2.1336,-2.1374,-2.1427,-2.1465,-2.15,-2.1515,-2.1544,-2.1614,-2.1661,-2.1723,-2.1744,-2.176,-2.1828,-2.1822,-2.1821,-2.1806,-2.1848,-2.187,-2.1879,-2.1771,-2.177,-2.177,-2.177,0,0,-2.1229,-2.1311,-2.1323,-2.1354,-2.1417,-2.1459,-2.1514,-2.1574,-2.1603,-2.1652,-2.1698,-2.1775,-2.1774,-2.181,-2.1831,-2.1866,-2.1915,-2.186,-2.1862,-2.1868,-2.1992,-2.1993,-2.2002,-2.1921,-2.1923,-2.1924,-2.1987,0,-2.1287,-2.1383,-2.141,-2.1492,-2.1541,-2.1559,-2.1606,-2.1651,-2.168,-2.1727,-2.176,-2.1813,-2.1808,-2.183,-2.1865,-2.1901,-2.194,-2.1897,-2.1965,-2.1967,-2.195,-2.2014,-2.2014,-2.2072,-2.1996,-2.1998,-2.1999,0,-2.1367,-2.1416,-2.1502,-2.1559,-2.1581,-2.1623,-2.168,-2.1724,-2.1776,-2.1794,-2.1835,-2.1852,-2.191,-2.1893,-2.1974,-2.1944,-2.1974,-2.1996,-2.1999,-2.2006,-2.1985,-2.2022,-2.2091,-2.2099,-2.2013,-2.2012,-2.2011,0,-2.1393,-2.1481,-2.1543,-2.1569,-2.1637,-2.1666,-2.1697,-2.1746,-2.1781,-2.1831,-2.1854,-2.191,-2.1942,-2.1985,-2.2018,-2.2002,-2.2096,-2.2082,-2.2114,-2.2113,-2.2132,-2.2131,-2.2206,-2.2152,-2.2152,-2.2152,-2.2152,0,-2.1455,-2.1507,-2.1556,-2.1594,-2.1653,-2.1685,-2.1743,-2.1774,-2.1818,-2.1864,-2.1883,-2.1926,-2.1966,-2.2015,-2.2041,-2.2104,-2.2118,-2.2135,-2.2141,-2.2133,-2.2131,-2.2153,-2.2149,-2.2154,-2.2154,-2.2153,-2.2153,0,-2.1494,-2.1529,-2.1598,-2.1657,-2.1673,-2.1714,-2.1765,-2.1803,-2.1833,-2.189,-2.1906,-2.1953,-2.201,-2.2047,-2.2121,-2.2139,-2.2208,-2.2213,-2.219,-2.2193,-2.2223,-2.2219,-2.2315,-2.2329,-2.2265,-2.2266,-2.2266,0,-2.153,-2.1571,-2.1633,-2.1665,-2.1695,-2.1745,-2.178,-2.1813,-2.1849,-2.191,-2.1942,-2.2,-2.2049,-2.2141,-2.2182,-2.2239,-2.2245,-2.2275,-2.2254,-2.2244,-2.2245,-2.2242,-2.2247,-2.2278,-2.2279,-2.2279,-2.2279,0,-2.1592,-2.1607,-2.1656,-2.1711,-2.1751,-2.1796,-2.1842,-2.1867,-2.1908,-2.1947,-2.2006,-2.2043,-2.2118,-2.2177,-2.2237,-2.2269,-2.2282,-2.2286,-2.2296,-2.2288,-2.2273,-2.2281,-2.2199,-2.2283,-2.2283,-2.2283,-2.2282,-2.2282,-2.1632,-2.1668,-2.1717,-2.1771,-2.1808,-2.185,-2.1889,-2.1923,-2.1972,-2.2035,-2.2052,-2.2114,-2.2165,-2.2247,-2.228,-2.2329,-2.2325,-2.234,-2.2344,-2.2347,-2.2347,-2.2265,-2.234,-2.234,-2.234,-2.234,-2.234,0,-2.1694,-2.1727,-2.1776,-2.1837,-2.188,-2.1887,-2.1937,-2.1972,-2.2026,-2.2072,-2.2119,-2.2187,-2.2243,-2.2289,-2.2347,-2.2378,-2.2385,-2.2392,-2.239,-2.2397,-2.2348,-2.2333,-2.2385,-2.2385,-2.2385,-2.2385,-2.2385,-2.2385,-2.1732,-2.1793,-2.1814,-2.1895,-2.1928,-2.1987,-2.2015,-2.2054,-2.2091,-2.2165,-2.2212,-2.2241,-2.2287,-2.2349,-2.2401,-2.2413,-2.2434,-2.244,-2.2453,-2.2406,-2.2401,-2.2396,-2.2382,-2.2444,-2.2444,-2.2499,-2.2499,-2.2499]},{"header":{"parameterUnit":"m.s-1","parameterCategory":1,"la1":30.2991,"la2":30.254,"lo1":-89.0895,"lo2":-89.0444,"dy":0.0017,"dx":0.0017,"nx":28,"ny":28,"refTime":"2023-03-21T21:00:00:Z","depth":0,"parameterNumber":3,"parameterNumberName":"V-component_of_WINDS"},"data":[0,0,0,0,0,0,0,0,0,0,0,0,0,0,0,0,0,0,0,0,0,0,0,0,0,0,0,0,0,0,0,0,0,0,0,0,0,0,0,0,0,0,0,0,0,0,0,0,0,0,0,0,0,0,0,0,0,0,3.7575,3.7574,0,3.7481,3.748,3.7479,3.7341,3.7339,3.7336,3.7334,3.7237,3.7237,3.7236,0,0,0,0,0,0,0,0,0,0,0,0,0,3.7636,3.7636,3.7575,3.7574,3.7573,3.7481,3.748,3.7479,3.7342,3.7339,3.7336,3.7333,3.7237,3.7237,3.7236,0,0,0,0,0,0,0,0,0,0,0,0,0,3.7583,3.7636,3.7576,3.7494,3.7485,3.7481,3.748,3.7478,3.7342,3.7339,3.7335,3.7332,3.7237,3.7237,3.7236,3.7305,0,0,3.7235,3.7235,0,0,0,0,0,0,0,0,3.7586,3.7581,3.7507,3.7499,3.749,3.7419,3.7466,3.742,3.7343,3.7397,3.7334,3.733,3.7301,3.7295,3.7285,3.73,3.7296,3.7235,3.7234,3.7234,3.7234,0,0,0,0,0,0,0,3.759,3.7584,3.7538,3.7506,3.7496,3.7461,3.745,3.7456,3.737,3.7392,3.7381,3.7372,3.7295,3.7286,3.7282,3.7295,3.7235,3.7234,3.7234,3.7234,3.736,3.7364,0,0,0,0,0,0,3.7606,3.7588,3.7541,3.7535,3.753,3.7463,3.745,3.7446,3.7369,3.7354,3.7375,3.7366,3.7288,3.7282,3.7278,3.7351,3.7234,3.7234,3.7233,3.7357,3.7361,3.7365,0,0,0,0,0,0,3.7608,3.7603,3.7545,3.7559,3.7549,3.7466,3.7462,3.7446,3.7436,3.7357,3.7341,3.7381,3.7285,3.7278,3.7299,3.7346,3.7233,3.7233,3.7352,3.7358,3.7363,3.7501,0,0,0,0,0,0,3.761,3.7605,3.763,3.756,3.7549,3.7568,3.7465,3.7446,3.7435,3.7422,3.7358,3.7344,3.7282,3.73,3.7298,3.7343,3.7233,3.7348,3.7355,3.7361,3.7492,3.7511,3.7527,0,0,0,0,0,3.7613,3.7673,3.7632,3.7627,3.7578,3.7571,3.7564,3.7491,3.744,3.7464,3.7414,3.7346,3.7342,3.7304,3.73,3.7346,3.7344,3.7353,3.7361,3.7484,3.7507,3.7526,0,0,0,0,0,0,3.775,3.7662,3.7616,3.7655,3.7622,3.7548,3.7577,3.7518,3.7499,3.7487,3.7397,3.7384,3.7416,3.7383,3.7342,3.7408,3.7333,3.7341,3.7428,3.7449,3.7466,3.7472,3.7232,0,0,0,0,0,3.7784,3.7786,3.7709,3.7751,3.7737,3.766,3.7654,3.7601,3.7563,3.7548,3.7499,3.7464,3.7454,3.745,3.7437,3.7487,3.747,3.7517,3.7534,3.7549,3.7556,3.7579,3.7598,3.7392,3.7392,3.7392,0,0,3.7856,3.7808,3.7815,3.7777,3.7745,3.7749,3.7649,3.7657,3.7658,3.7549,3.7565,3.7528,3.7483,3.7519,3.7532,3.7492,3.761,3.7559,3.7572,3.7571,3.7589,3.7609,3.7626,3.7398,3.7397,3.7396,0,0,3.7988,3.7953,3.7983,3.7953,3.7906,3.7854,3.7862,3.7797,3.7768,3.7783,3.7701,3.7701,3.7687,3.7658,3.7642,3.7764,3.77,3.7762,3.7852,3.7875,3.7891,3.7905,3.7947,3.7964,3.777,3.777,3.7771,0,3.8083,3.8084,3.8006,3.8019,3.8004,3.7906,3.7936,3.7911,3.7862,3.7854,3.7811,3.779,3.7753,3.778,3.781,3.78,3.7805,3.7768,3.7896,3.7909,3.792,3.7959,3.7976,3.7778,3.7777,3.7776,3.7776,0,3.8203,3.8205,3.8236,3.8191,3.818,3.8202,3.8126,3.8125,3.8073,3.8026,3.8042,3.7994,3.797,3.7972,3.7922,3.7992,3.7968,3.7912,3.7835,3.7949,3.7984,3.7998,3.7789,3.7786,3.7784,3.7782,0,0,3.8417,3.8329,3.8341,3.8319,3.826,3.826,3.8277,3.8253,3.8253,3.8223,3.8234,3.8225,3.8172,3.8153,3.8098,3.8119,3.8217,3.8059,3.8057,3.8089,3.8289,3.8331,3.835,3.8176,3.8178,3.818,3.8293,0,3.8536,3.8559,3.849,3.8531,3.8532,3.8439,3.8453,3.8418,3.8376,3.837,3.8322,3.8316,3.8247,3.8235,3.8252,3.8202,3.8256,3.8193,3.8184,3.8185,3.8197,3.8368,3.8413,3.8521,3.8306,3.8308,3.831,0,3.8677,3.8654,3.8696,3.8634,3.8632,3.8646,3.8618,3.8614,3.8573,3.854,3.852,3.8456,3.8468,3.8395,3.8409,3.8368,3.836,3.8335,3.8338,3.8333,3.8253,3.8367,3.8554,3.857,3.8331,3.8329,3.8328,0,3.8827,3.8807,3.8829,3.8813,3.8742,3.8754,3.8725,3.868,3.867,3.8646,3.8638,3.8616,3.8603,3.8587,3.8519,3.8472,3.8541,3.8463,3.8512,3.8514,3.853,3.8529,3.8717,3.8528,3.8528,3.8528,3.8527,0,3.8966,3.8995,3.8895,3.8909,3.8938,3.8858,3.8889,3.885,3.8811,3.8815,3.8734,3.8739,3.8649,3.8645,3.8592,3.8611,3.8606,3.8579,3.8564,3.8585,3.8589,3.8578,3.8568,3.8532,3.8531,3.853,3.8529,0,3.9138,3.9073,3.909,3.9022,3.9005,3.903,3.897,3.898,3.8932,3.8938,3.8935,3.8859,3.885,3.878,3.8755,3.8719,3.8757,3.8729,3.8772,3.8761,3.8815,3.881,3.9001,3.9022,3.8821,3.8823,3.8825,0,3.923,3.925,3.9184,3.9181,3.9155,3.9152,3.9141,3.9063,3.9055,3.9009,3.9024,3.9008,3.899,3.8979,3.8921,3.8901,3.887,3.8939,3.8867,3.8887,3.887,3.8869,3.887,3.8954,3.8956,3.8959,3.896,0,3.9401,3.9367,3.9355,3.9332,3.9321,3.9299,3.9272,3.9274,3.9188,3.9183,3.9172,3.9159,3.9133,3.9117,3.9087,3.9056,3.8994,3.8984,3.8994,3.9015,3.9038,3.9025,3.8812,3.8979,3.8977,3.8976,3.8975,3.8974,3.9534,3.9547,3.9503,3.9492,3.9463,3.944,3.9445,3.9398,3.9387,3.936,3.9315,3.9311,3.9268,3.9221,3.9195,3.919,3.9154,3.9169,3.9173,3.9177,3.9188,3.9041,3.9185,3.9184,3.9183,3.9183,3.9182,0,3.9699,3.9666,3.9657,3.9621,3.9613,3.9556,3.9523,3.9519,3.9516,3.9482,3.9466,3.9454,3.9438,3.938,3.9358,3.9365,3.9336,3.9362,3.936,3.9354,3.9222,3.9215,3.9386,3.9386,3.9386,3.9386,3.9386,3.9386,3.9784,3.9803,3.9764,3.9768,3.9734,3.9729,3.9715,3.9693,3.9665,3.9654,3.9641,3.9604,3.956,3.9534,3.9517,3.95,3.9495,3.9531,3.9504,3.9382,3.9363,3.9344,3.9337,3.953,3.9531,3.9635,3.9636,3.9637]}]]